GFSSW_850_temp_105.txt.gz
Temp
13 14 14 15 15 16 16 16 16 16 17 17 17 17 17 18 19 19 20 22 21 21 21 21 21 22 22 22 23 21 19 20 22 24 23 23 24 23 24 25 24 24 23 24 22
14 14 14 14 15 15 16 16 16 16 17 16 17 17 17 18 19 20 23 22 21 21 21 21 21 22 22 24 25 20 18 18 22 25 23 23 24 24 24 25 25 24 24 24 23
14 14 14 15 15 15 15 15 15 16 16 17 16 17 17 18 19 22 23 23 22 21 21 21 23 23 24 26 26 21 19 20 20 23 23 24 23 23 24 24 24 24 24 24 23
14 14 14 14 15 15 15 15 15 16 16 16 17 17 17 17 20 22 22 22 22 21 22 21 23 25 24 24 27 24 22 20 25 23 24 23 22 20 21 19 24 24 24 24 23
14 14 15 15 15 15 16 16 16 16 16 16 16 16 17 16 20 22 22 22 21 22 22 21 22 25 24 26 28 27 25 21 25 22 22 22 21 20 20 23 24 24 24 25 25
14 14 14 15 15 15 16 16 16 16 16 16 16 16 16 16 22 22 22 22 22 22 22 21 23 26 27 27 27 29 23 19 24 23 22 21 20 21 21 23 24 24 25 25 25
14 14 15 15 15 16 16 16 16 16 17 16 16 16 15 20 21 21 22 22 22 23 22 24 25 27 28 26 29 28 26 23 25 24 23 21 21 21 21 23 24 25 25 25 26
15 15 15 15 15 16 16 16 16 17 17 16 16 16 17 22 22 22 21 21 21 23 23 24 26 26 27 28 28 28 24 20 23 25 23 23 20 20 21 20 21 24 25 25 26
15 15 15 15 16 16 16 16 16 16 16 16 16 16 18 22 22 22 22 22 22 23 23 25 26 26 26 24 23 26 26 24 25 25 23 23 19 20 20 18 19 23 25 26 26
16 16 16 16 16 16 16 16 16 16 16 16 16 14 21 22 22 23 23 23 23 24 24 25 25 22 21 21 21 24 25 24 25 25 24 21 20 20 20 18 18 23 25 26 25
16 16 16 16 16 17 17 16 16 16 15 17 20 20 23 23 23 23 24 24 24 24 22 25 21 19 21 23 26 27 27 26 27 25 22 20 19 20 19 18 19 24 26 26 25
16 16 16 16 17 17 17 17 19 21 20 21 22 21 23 24 24 24 24 24 24 22 24 22 20 23 25 26 27 27 27 23 22 22 21 20 19 19 19 19 18 21 26 25 25
16 16 17 17 17 18 18 19 20 21 21 22 23 23 25 24 24 24 24 24 24 22 23 22 24 26 26 27 27 26 26 22 23 20 18 20 19 18 19 17 17 19 22 25 25
16 17 17 17 17 17 18 20 21 21 18 23 22 24 24 24 24 24 24 24 25 23 23 23 26 27 26 26 27 25 28 23 21 20 19 21 18 18 19 18 17 17 21 24 25
16 16 17 17 17 19 20 21 21 21 17 24 24 25 25 25 26 25 24 24 23 25 24 23 25 26 27 27 29 27 27 23 22 20 22 22 19 20 19 19 18 17 18 21 24
17 17 17 17 17 19 20 21 21 18 20 24 26 25 25 25 25 25 25 25 25 25 25 25 28 27 27 29 29 30 30 26 21 18 19 22 22 18 19 19 18 18 18 20 23
17 17 17 17 18 20 20 21 18 18 21 24 24 25 24 23 25 25 24 22 21 22 21 25 26 27 29 28 27 28 27 22 23 18 21 24 22 21 18 17 16 16 16 19 23
18 18 19 19 19 19 20 19 17 19 19 23 25 25 24 24 24 25 23 22 23 23 22 22 22 26 28 27 25 26 24 21 22 23 24 24 19 18 19 17 16 17 16 18 20
18 19 19 20 20 20 20 14 15 19 21 22 24 24 23 24 23 23 23 22 24 24 22 22 23 27 28 28 27 26 24 25 23 24 23 19 19 20 19 18 17 16 17 16 17
18 19 20 21 20 21 19 16 16 20 22 24 21 21 22 21 21 20 20 23 25 24 25 23 20 26 28 29 28 26 25 22 22 23 24 19 21 19 18 18 17 16 15 15 16
18 18 22 22 22 22 18 19 20 22 24 23 21 20 20 20 19 17 17 22 23 23 22 23 20 22 26 25 24 24 22 24 23 23 22 20 17 19 17 17 16 15 15 15 15
17 17 22 22 21 22 19 21 23 24 24 22 20 20 20 20 19 13 20 20 23 23 21 22 21 21 23 25 27 25 24 23 20 21 22 19 17 16 17 16 15 14 14 15 15
16 19 22 23 19 20 21 23 23 22 23 23 21 20 19 21 20 20 20 23 23 22 20 19 17 17 20 23 26 25 24 24 23 23 23 22 17 16 17 16 15 14 14 15 14
15 18 23 23 23 22 22 23 22 22 23 23 22 23 22 21 21 19 22 23 23 22 20 19 19 18 15 17 21 22 24 24 24 21 19 18 16 16 16 16 16 15 14 15 14
16 19 22 19 20 21 21 22 22 22 22 22 22 22 21 20 17 18 21 21 22 21 22 19 17 18 19 22 23 23 24 25 24 22 20 16 17 16 16 16 16 16 15 15 15
17 19 20 21 22 20 19 20 22 22 20 21 21 22 21 18 17 16 19 22 22 21 22 20 17 18 18 22 24 23 23 25 24 21 19 18 16 16 16 16 16 16 16 15 15
16 17 18 20 20 20 20 21 21 21 21 22 21 20 19 19 20 20 19 20 19 19 18 19 17 17 17 19 20 20 23 22 23 23 21 17 16 16 15 16 16 17 17 16 15

GFSSW_850_temp_108.txt.gz
Temp
15 14 15 15 15 15 15 15 16 16 17 17 17 17 17 18 18 19 21 22 22 21 21 20 20 21 21 20 21 21 19 18 20 23 20 23 24 23 23 23 23 23 21 21 19
15 15 15 15 15 16 16 15 16 16 16 17 17 17 17 18 19 21 23 22 22 21 20 20 21 21 21 22 22 21 18 20 20 20 21 21 23 21 23 23 23 23 22 20 20
15 15 15 15 15 15 15 16 16 16 16 16 17 17 17 18 19 22 23 23 22 21 21 21 21 21 21 22 23 20 19 21 21 20 20 23 22 22 23 21 23 21 21 20 20
14 14 14 14 15 15 16 16 16 16 17 17 16 16 17 17 20 21 22 23 22 22 21 21 20 20 21 21 24 22 23 22 23 22 21 22 21 21 22 21 23 22 21 20 20
14 15 15 15 15 15 15 16 16 16 16 17 17 16 16 17 21 22 22 22 22 21 21 21 20 21 21 23 24 23 23 22 22 23 22 22 21 20 21 24 24 23 22 22 21
14 14 15 15 15 15 16 16 16 16 16 17 16 16 16 15 22 21 22 22 22 22 22 21 22 23 23 25 24 26 23 23 22 21 22 22 21 22 21 23 23 24 23 22 22
15 15 15 15 15 15 15 16 15 16 16 16 16 16 16 21 21 21 21 22 22 23 23 23 23 22 24 24 27 23 20 21 21 20 21 21 19 21 21 23 24 24 24 23 21
15 15 15 15 16 16 16 15 16 16 16 16 16 15 18 22 21 21 21 21 22 23 23 23 23 22 22 26 25 23 20 20 22 20 21 21 19 21 22 22 23 24 24 24 22
15 15 16 16 16 16 16 16 16 16 16 16 15 14 19 22 22 22 21 22 22 23 23 23 22 23 25 22 20 22 20 19 19 20 21 20 19 19 21 22 23 24 24 24 22
15 16 16 16 16 16 16 16 16 16 16 16 15 13 20 22 22 22 22 22 22 23 22 22 23 20 18 18 19 22 23 22 21 22 21 19 19 18 20 22 22 23 24 23 22
15 16 16 16 16 17 17 17 16 15 16 20 20 20 21 22 22 22 22 22 23 22 20 23 19 19 20 19 21 22 24 25 23 21 21 18 18 18 18 19 20 20 21 22 22
16 16 16 16 16 17 17 17 20 19 18 20 21 20 21 21 22 23 23 23 22 20 21 19 19 20 21 22 22 23 24 22 20 20 19 18 18 18 18 19 20 20 20 23 22
16 16 16 16 17 17 18 19 20 19 18 21 22 22 22 23 23 23 23 23 22 21 21 18 21 23 22 22 22 22 22 21 21 20 19 19 19 18 18 18 18 20 19 21 23
16 16 17 17 17 18 19 20 20 19 13 18 21 23 23 24 23 24 24 24 22 21 21 20 23 23 22 22 23 21 25 24 20 20 19 20 19 17 18 18 18 17 17 20 22
16 17 17 17 17 18 20 19 19 20 15 22 22 24 24 24 23 23 24 24 21 22 21 21 23 22 23 24 24 24 24 22 21 19 19 18 19 18 18 18 19 18 17 20 21
17 17 17 18 18 19 19 19 20 14 15 22 23 22 23 23 24 24 24 24 24 22 22 21 24 23 24 25 25 25 22 20 18 17 19 20 19 18 18 19 20 19 17 20 20
17 17 18 18 19 19 19 18 14 15 19 21 21 22 21 21 22 23 22 21 20 20 19 21 22 24 26 24 25 25 21 17 18 18 18 18 20 18 18 19 19 18 18 19 19
18 18 19 19 19 19 18 15 16 19 18 20 22 21 21 22 22 22 20 20 20 19 18 19 19 24 26 24 24 24 22 18 21 18 19 21 20 20 17 17 17 17 18 18 19
18 19 19 20 19 19 18 13 14 16 19 20 19 19 19 21 21 19 16 19 21 20 19 19 21 23 26 26 24 24 23 23 20 22 20 18 18 18 17 16 17 16 16 16 16
18 19 21 20 20 19 14 14 16 17 19 20 19 19 18 16 16 17 15 19 20 21 19 21 20 21 24 26 25 23 24 22 20 21 22 18 18 18 17 17 16 15 15 15 15
18 18 22 21 20 18 14 14 17 20 20 20 19 17 17 18 15 15 16 18 20 20 20 19 18 19 23 22 22 22 21 21 20 18 19 18 18 17 17 16 15 15 15 15 15
17 14 22 21 18 16 15 19 22 21 22 20 19 18 18 18 16 16 17 18 20 20 19 19 15 17 20 21 23 22 22 18 18 21 17 16 17 15 15 15 15 15 15 15 15
16 17 22 21 17 15 17 22 21 20 20 20 19 20 19 18 18 17 19 21 22 20 19 19 15 14 17 18 20 21 23 20 17 16 18 16 17 15 14 14 14 14 14 14 14
15 14 20 22 20 18 19 20 20 22 21 21 20 20 19 19 18 18 19 21 22 21 20 19 13 14 14 16 17 19 21 21 18 17 17 16 16 15 14 13 14 14 14 13 13
16 15 18 15 17 18 19 19 20 19 20 21 19 19 19 17 17 17 18 18 21 21 20 16 16 17 17 18 20 20 21 21 21 18 19 15 16 15 15 14 14 14 14 13 13
16 16 17 17 19 18 16 18 18 19 19 18 16 17 16 16 17 16 17 16 18 18 19 15 17 17 17 20 19 20 20 20 20 18 16 15 15 16 16 15 15 14 14 14 13
15 16 16 16 15 16 16 18 18 19 19 18 17 15 15 16 19 19 19 19 18 18 16 14 15 15 17 17 18 18 19 20 19 18 16 15 15 16 15 15 15 15 15 14 14

GFSSW_850_temp_111.txt.gz
Temp
14 15 15 15 15 15 15 15 16 16 16 16 17 17 17 18 18 19 21 22 21 21 21 20 20 20 20 20 20 20 18 18 19 20 18 23 22 23 22 21 22 22 20 19 18
14 15 15 15 14 15 15 15 15 16 16 16 17 17 17 18 19 20 22 22 21 21 21 21 21 20 20 21 21 19 18 19 20 20 20 20 23 22 22 22 20 20 19 19 19
14 14 14 15 15 15 15 15 16 16 16 16 16 17 17 18 19 22 22 22 22 21 21 21 21 20 20 21 21 20 20 21 22 21 21 20 21 22 22 21 21 20 18 18 19
14 14 14 14 15 15 15 15 15 16 16 16 16 16 17 17 20 21 22 22 21 21 21 20 20 20 20 20 22 21 21 22 22 20 20 21 21 21 21 20 21 20 20 19 19
15 15 14 14 15 15 15 15 16 15 16 16 16 16 16 17 21 21 22 22 21 21 21 21 20 20 20 21 22 22 23 23 22 20 21 21 22 21 19 20 21 20 19 19 19
15 15 15 15 15 15 15 15 15 16 15 16 16 16 16 16 21 21 21 22 22 21 21 21 21 21 21 22 23 24 22 22 22 22 21 19 18 18 20 22 20 20 19 20 20
15 15 15 15 15 15 15 15 15 15 16 16 16 16 16 21 20 21 21 21 21 22 22 22 21 21 21 21 25 21 20 22 21 21 20 22 21 20 21 22 21 20 20 20 20
15 15 15 15 15 15 15 15 15 16 16 15 15 16 18 20 20 21 20 20 20 21 21 21 21 21 21 24 23 20 19 21 21 20 19 21 19 20 22 22 21 21 20 20 21
15 15 16 16 16 16 16 15 15 16 16 15 15 15 19 20 21 21 21 21 21 20 21 21 21 21 22 20 19 19 20 20 20 21 21 20 18 19 21 21 22 22 21 20 20
15 15 16 16 16 16 16 16 15 15 16 15 15 14 21 21 21 22 21 20 21 21 21 21 21 18 16 17 18 20 21 20 20 21 21 18 19 18 20 20 20 21 22 21 20
15 15 16 16 16 16 16 16 15 15 15 19 19 19 20 21 21 22 21 21 21 22 19 21 18 18 19 19 20 22 22 22 20 22 20 19 17 18 20 21 20 20 21 20 20
15 15 16 16 16 17 17 17 17 17 16 19 19 19 21 20 21 22 22 21 21 19 20 18 18 20 21 20 21 22 22 18 19 19 19 18 18 17 18 18 20 18 20 21 20
15 16 16 17 17 18 18 18 18 17 16 19 20 21 23 22 22 22 22 22 20 20 20 18 21 21 22 21 22 21 21 21 19 20 20 19 18 18 18 18 18 19 18 20 20
16 16 16 17 18 18 19 18 18 18 13 18 20 22 22 23 22 23 23 23 21 20 19 20 21 22 21 21 21 21 22 23 20 19 19 19 19 17 17 17 18 18 18 20 20
16 17 17 17 18 18 18 18 19 19 16 20 21 23 22 23 23 23 23 23 21 21 19 20 22 21 21 21 22 21 24 23 20 18 17 18 18 17 17 17 18 18 19 19 19
16 17 17 18 18 19 19 19 19 14 17 20 22 22 21 22 23 23 23 23 23 21 21 20 23 22 21 23 22 22 20 17 16 16 18 18 20 17 18 18 19 19 19 18 18
17 17 18 18 19 19 19 19 14 15 18 19 20 21 21 20 21 21 20 20 19 19 18 19 21 22 23 22 23 21 17 15 18 17 17 17 18 19 18 18 19 19 18 17 19
17 18 19 19 19 19 19 15 16 18 17 19 20 20 20 20 20 20 19 19 20 19 16 18 19 22 23 22 21 18 18 17 19 17 18 17 19 17 16 16 19 19 18 17 17
18 19 20 20 19 19 18 13 15 16 18 19 19 17 15 17 18 18 18 18 20 19 19 17 19 22 23 24 22 22 21 20 18 19 19 17 18 18 16 16 15 16 16 16 17
18 18 20 20 20 19 15 14 15 16 18 19 18 17 16 15 16 16 17 19 20 20 18 19 19 21 21 24 23 21 20 20 17 19 22 18 18 18 16 16 16 15 15 16 17
18 18 20 20 20 19 14 14 16 19 19 19 18 18 17 17 15 15 17 19 19 19 18 17 17 19 20 20 21 21 20 17 17 17 19 18 17 16 16 15 15 15 15 16 16
17 14 19 20 18 13 14 16 20 19 19 19 18 18 18 17 16 16 17 17 20 19 19 17 13 16 20 19 18 21 20 18 18 20 15 15 17 15 16 15 14 14 15 15 15
16 17 19 19 15 14 15 20 20 20 19 20 19 19 17 17 17 17 18 20 20 19 19 18 14 15 18 17 17 17 18 17 15 17 17 17 17 14 15 15 15 15 15 14 15
16 14 19 20 18 16 16 19 20 20 19 19 19 19 19 17 15 18 18 20 21 20 19 17 12 14 14 17 16 17 18 20 17 17 15 17 16 14 14 14 14 14 14 14 14
16 13 15 14 16 16 16 19 18 18 18 17 16 15 18 17 16 16 17 18 20 21 18 14 15 15 14 15 18 18 19 19 18 18 19 16 16 15 14 14 14 13 14 13 13
15 14 16 15 14 16 13 16 17 17 17 17 15 15 14 15 16 16 16 17 18 17 17 12 14 17 16 16 18 18 18 18 17 16 15 16 16 15 14 14 14 13 13 13 13
15 15 15 15 13 14 14 17 18 16 17 17 16 15 15 17 17 18 18 17 17 17 15 14 12 13 16 16 17 16 17 16 18 17 16 16 16 15 14 14 14 14 13 13 13

GFSSW_850_temp_114.txt.gz
Temp
13 14 14 14 14 14 15 15 16 16 16 16 16 17 17 18 18 19 20 22 21 21 20 20 20 20 19 19 19 18 17 18 19 18 19 21 21 22 22 20 21 20 19 18 18
14 14 14 14 14 14 14 15 15 16 16 16 17 17 17 18 19 20 21 21 22 21 21 20 20 19 20 20 20 19 17 19 19 19 19 22 22 21 21 20 19 19 19 18 19
14 14 14 14 14 14 14 15 15 15 16 17 17 17 17 18 19 21 22 21 21 21 21 20 20 20 20 20 21 20 19 21 20 20 20 22 22 21 21 20 20 17 18 18 18
14 14 14 15 15 15 15 15 15 15 16 16 17 17 17 17 20 21 21 22 21 20 20 19 20 20 19 19 21 20 21 22 21 21 20 20 21 21 20 20 20 21 20 19 18
15 15 15 15 15 15 15 15 16 15 16 16 16 17 16 17 21 21 21 21 20 20 20 20 20 20 19 20 21 20 22 22 21 21 20 21 21 20 18 20 20 20 19 19 19
15 15 15 15 15 15 15 15 16 16 16 16 15 16 16 15 20 21 21 21 21 20 20 20 20 21 21 21 21 22 22 21 20 19 20 21 17 18 18 19 19 20 19 19 19
15 15 15 15 15 15 15 15 15 15 16 15 15 15 16 20 19 20 20 21 21 20 21 20 21 21 21 21 22 21 19 21 20 19 18 18 17 17 20 19 18 19 19 20 19
15 15 15 15 16 15 15 15 15 15 16 15 15 15 17 20 20 20 19 20 20 19 20 21 21 21 21 22 22 19 19 20 20 19 18 19 18 19 20 20 19 19 19 19 19
15 15 15 15 15 16 16 15 15 15 15 16 15 15 18 20 20 20 19 20 19 19 20 21 21 21 21 19 18 17 18 20 20 19 19 19 18 20 20 19 20 19 19 19 19
15 15 15 15 16 16 16 15 15 15 15 15 15 14 19 20 21 21 20 19 19 19 20 20 20 16 16 17 18 19 20 20 20 19 19 19 18 18 20 20 19 18 19 19 19
15 15 15 16 16 16 16 16 15 15 14 17 18 18 19 20 20 21 20 19 20 20 17 19 17 17 18 19 19 21 21 21 19 20 20 18 17 18 19 20 20 20 20 19 20
15 15 15 16 16 16 16 17 16 15 15 18 18 18 20 19 20 21 20 20 20 18 18 17 17 18 19 20 21 21 21 18 19 19 19 18 18 17 18 19 20 19 18 19 19
15 15 16 17 17 17 17 17 16 16 14 18 19 19 21 20 21 21 21 21 19 19 19 17 20 19 20 20 21 21 20 18 20 19 19 19 19 18 18 18 19 19 18 18 19
15 16 16 17 17 17 18 17 17 17 12 18 18 21 21 21 21 22 22 22 20 19 18 20 21 21 20 21 20 20 20 21 19 18 18 18 19 18 17 17 18 18 17 18 19
15 16 17 17 17 18 18 18 18 17 15 20 20 22 21 22 22 21 22 22 20 20 19 19 21 20 20 20 20 21 22 20 20 17 17 18 18 19 17 17 17 18 18 18 18
15 16 17 17 18 18 18 18 18 14 17 19 21 21 20 21 22 21 22 23 22 20 20 19 22 21 20 21 21 20 19 16 15 16 17 18 18 17 18 18 18 18 18 18 18
16 17 18 18 19 18 19 19 14 15 18 19 19 20 20 20 21 21 20 19 18 17 18 19 20 21 21 21 20 18 17 16 17 17 17 16 17 17 16 18 18 19 18 19 18
17 18 18 19 19 19 19 16 16 17 17 18 18 17 17 17 18 18 18 17 19 17 15 17 19 20 21 21 19 17 18 16 18 16 18 17 17 18 15 16 19 19 19 18 17
17 18 19 19 19 19 19 13 15 16 18 18 17 16 15 17 18 17 17 17 19 17 18 16 19 20 21 22 21 19 19 18 16 16 17 16 17 17 16 16 17 19 18 17 18
18 18 19 20 19 19 15 14 15 16 18 18 17 17 17 15 17 16 17 18 19 19 17 17 18 20 20 22 21 20 19 19 15 17 19 16 17 17 16 16 16 16 17 17 18
17 18 18 19 19 19 14 14 16 18 18 18 17 17 16 16 15 16 16 18 19 19 16 15 16 19 20 19 19 19 19 16 16 15 17 17 17 16 16 17 16 16 15 17 17
17 14 18 18 17 11 14 16 19 19 18 18 17 17 17 16 16 16 17 18 19 18 18 16 13 16 20 18 16 19 19 16 17 18 14 15 16 15 16 16 16 15 15 16 17
17 17 17 18 14 13 15 19 19 18 17 19 18 18 17 16 17 16 17 19 20 19 18 17 13 15 17 17 17 16 17 16 14 13 15 18 16 15 15 14 14 14 14 15 14
16 14 17 17 16 16 16 18 18 19 17 17 16 18 17 15 14 17 18 19 20 19 17 16 11 14 14 16 15 17 16 18 16 16 15 16 15 14 14 13 13 14 14 14 14
16 12 14 13 14 14 16 17 18 18 17 16 15 14 17 16 16 16 17 18 19 18 16 13 14 15 15 15 16 17 17 16 18 18 19 16 15 16 14 13 14 14 14 14 14
15 14 15 14 13 15 12 16 17 16 16 17 15 15 14 15 15 16 16 16 18 16 15 11 14 15 16 17 17 18 16 16 16 15 15 14 15 13 13 14 13 13 13 13 13
14 14 14 13 12 14 14 17 17 16 17 16 16 15 15 16 16 17 16 15 14 16 14 13 13 13 15 14 18 17 16 16 16 16 15 15 15 13 12 13 14 13 13 13 12

GFSSW_850_temp_117.txt.gz
Temp
14 14 14 14 14 15 15 15 16 16 16 17 17 17 17 17 18 19 20 21 20 20 20 20 20 19 19 18 18 18 19 19 19 22 21 22 21 21 21 21 20 19 19 18 15
14 14 14 14 14 14 15 15 15 16 16 16 17 17 17 18 18 20 21 21 20 20 20 20 20 19 20 20 20 21 19 19 18 19 21 22 22 21 22 21 18 18 17 16 15
14 14 14 14 14 14 15 15 16 15 16 16 16 17 18 18 18 21 21 21 21 20 20 20 21 20 21 20 21 21 20 21 20 21 21 22 22 21 21 21 20 19 17 16 16
14 14 14 14 14 14 15 15 15 16 16 16 16 16 18 18 21 20 21 21 21 20 19 20 20 21 22 22 21 22 22 22 22 20 21 21 21 21 20 20 20 19 18 17 17
14 15 15 15 15 15 15 15 16 16 16 16 16 16 17 18 20 20 20 20 20 19 19 19 20 21 23 22 22 23 23 22 22 21 21 21 20 19 18 19 19 18 17 17 17
14 15 15 15 15 15 15 15 16 16 16 16 16 17 16 18 20 20 20 20 20 19 19 20 20 21 22 22 23 23 23 22 20 21 21 19 18 19 18 18 18 18 18 18 18
14 15 15 15 15 15 15 15 15 15 16 16 16 16 17 19 19 20 21 20 20 20 20 20 21 21 21 23 22 22 23 22 21 21 19 18 17 18 19 19 19 19 19 18 18
14 15 15 15 15 15 15 15 15 15 15 16 16 15 18 19 18 20 20 19 19 19 20 20 20 21 21 21 22 23 23 22 20 20 19 19 19 18 18 19 19 19 19 19 18
14 15 15 15 15 15 15 15 15 15 15 15 15 15 18 19 18 19 20 19 19 19 19 20 20 21 22 24 23 22 23 23 21 21 19 18 21 19 18 18 19 19 19 19 19
14 14 15 15 15 15 15 15 14 15 15 15 15 15 18 19 19 19 19 19 18 19 19 20 20 22 22 24 24 24 24 23 23 21 21 21 21 21 19 18 20 19 19 20 19
14 15 15 15 15 16 16 15 15 14 14 17 17 18 19 19 19 19 19 18 19 19 21 20 22 22 24 24 24 24 24 24 22 22 22 22 21 21 19 18 18 19 20 20 20
14 15 15 16 16 17 16 16 16 16 16 17 17 18 19 19 19 18 19 20 20 21 20 21 22 22 23 23 24 24 24 22 21 21 22 21 21 21 20 20 19 19 18 19 19
14 15 15 16 17 17 17 17 17 15 16 17 18 19 20 19 20 19 19 20 21 21 21 22 23 21 23 23 24 24 25 22 23 21 21 22 20 20 20 19 19 18 19 19 19
15 15 16 16 17 17 17 17 17 16 18 20 20 20 20 20 21 20 20 21 21 22 22 23 22 22 23 23 24 24 24 24 22 23 23 21 22 19 20 20 19 17 19 19 18
15 15 16 16 17 17 17 17 18 17 18 21 21 20 20 21 21 20 21 22 22 22 22 22 22 22 22 23 23 24 23 25 24 22 23 22 23 22 19 19 19 19 18 19 19
15 16 16 17 17 18 18 18 17 18 18 21 21 21 22 22 22 20 21 22 21 22 22 23 21 23 24 23 24 22 23 22 22 22 22 24 24 23 19 21 21 20 20 19 18
15 17 17 17 18 18 18 18 18 18 19 20 20 21 22 21 22 22 22 22 22 21 21 22 23 23 23 24 23 22 24 21 21 21 23 21 22 25 21 21 22 21 20 19 19
17 17 18 18 18 19 18 19 18 18 19 19 19 20 21 20 19 20 21 21 20 21 21 21 22 23 23 24 23 23 25 25 23 23 25 20 23 24 20 18 20 20 20 18 18
17 18 18 19 19 19 18 18 18 18 19 19 20 20 20 19 20 20 20 21 22 22 21 21 22 23 23 24 24 22 22 25 24 22 24 23 22 21 19 20 20 20 19 18 17
17 18 18 19 19 18 18 16 18 17 19 19 19 19 20 19 20 20 20 20 21 20 19 21 22 23 23 23 22 24 25 24 23 23 23 21 22 24 19 19 21 20 20 19 18
17 17 18 18 18 18 18 17 18 18 18 20 19 19 18 19 18 19 19 20 20 19 19 20 22 23 22 23 23 23 24 23 25 24 25 24 23 20 20 20 19 20 20 19 18
17 18 17 18 19 13 19 17 18 19 18 20 19 19 18 18 19 19 20 20 19 20 21 19 22 22 23 21 20 22 22 24 25 22 22 24 24 18 19 19 18 18 17 18 18
17 16 17 18 19 19 17 19 18 20 18 20 19 19 18 18 19 19 19 20 19 20 20 20 20 22 22 22 21 21 21 21 22 23 23 25 24 17 18 18 16 16 16 16 16
17 19 17 17 16 18 19 19 19 18 17 16 18 19 19 19 18 19 20 20 19 18 16 18 18 21 22 21 20 20 20 21 23 24 24 24 22 16 17 18 15 15 15 14 15
16 15 15 18 17 16 17 18 19 19 17 17 18 17 19 19 19 19 19 20 19 17 17 20 20 18 19 19 20 20 20 20 21 22 24 25 23 21 18 17 15 15 14 14 14
14 15 14 13 12 17 16 18 19 17 18 19 18 17 18 18 17 18 18 18 19 19 18 17 18 18 19 19 19 20 21 21 20 20 21 21 22 19 18 15 15 14 14 14 13
14 14 15 12 15 18 17 18 18 17 17 17 17 18 18 17 16 17 16 16 16 18 18 18 19 19 19 18 19 20 20 20 19 19 19 21 19 17 16 16 14 14 14 14 13

GFSSW_850_temp_123.txt.gz
Temp
15 15 15 15 15 15 15 15 16 16 16 17 17 17 18 18 19 19 19 21 20 21 20 21 22 22 23 24 23 23 24 25 27 28 27 27 27 27 26 26 27 26 24 24 23
15 15 15 15 15 15 15 15 15 16 16 17 17 17 18 18 19 18 21 20 21 21 20 22 24 24 25 26 25 26 23 25 25 29 28 26 26 27 27 27 26 26 24 22 23
15 15 15 15 15 15 15 15 16 16 16 17 17 18 18 18 17 24 22 21 22 21 21 23 25 25 28 28 27 29 26 23 22 26 27 24 26 27 28 27 27 24 23 22 23
15 15 15 15 15 15 15 16 16 16 16 17 17 17 18 18 25 21 21 22 22 21 22 23 25 26 28 29 28 27 26 24 24 24 25 24 24 27 27 27 26 24 23 23 23
14 15 15 15 15 15 15 16 16 16 16 17 17 17 18 18 22 20 21 22 22 20 22 24 26 27 30 29 29 28 27 26 26 25 25 24 24 22 25 26 26 24 24 24 24
14 15 15 15 15 16 16 16 16 16 16 16 17 17 16 22 21 19 19 22 20 21 23 24 26 28 29 29 28 29 28 27 25 24 21 22 20 21 22 26 25 24 24 24 25
14 15 15 15 16 16 16 16 16 16 16 16 17 17 16 22 20 20 20 21 22 22 24 25 26 27 29 30 29 29 28 28 23 25 23 21 21 20 21 25 25 25 25 25 25
14 15 15 15 15 15 15 16 16 16 16 16 17 16 20 20 20 20 21 22 22 23 25 25 24 26 28 29 29 30 28 25 25 24 23 23 22 19 21 24 25 26 25 25 25
14 14 15 15 15 16 16 16 16 16 16 16 16 15 23 20 20 21 22 23 23 23 24 24 24 26 28 29 30 30 28 25 24 24 23 23 21 20 20 25 26 26 25 25 25
14 14 15 15 16 16 16 16 16 16 16 16 15 18 20 22 22 22 22 22 23 24 24 24 25 28 29 30 27 28 29 27 27 25 25 24 20 22 22 25 24 24 25 25 25
14 15 15 16 16 16 16 15 15 15 16 21 22 23 24 23 21 22 22 23 24 25 27 26 27 28 30 31 26 30 28 20 24 29 26 24 21 22 21 21 22 21 24 25 25
15 15 15 16 16 17 17 18 20 20 22 22 22 22 23 22 23 23 23 24 25 26 28 27 27 30 31 31 30 29 28 26 23 29 27 25 21 23 21 20 19 18 20 21 23
15 15 15 16 17 18 17 19 19 19 22 23 22 23 23 23 24 24 23 25 26 27 28 28 29 31 30 30 29 31 31 29 28 29 29 25 21 20 22 21 20 18 22 22 20
14 15 16 17 17 18 19 19 19 19 23 24 24 24 23 24 26 24 24 26 27 27 28 29 31 30 29 28 30 29 31 23 19 29 26 29 23 21 20 22 22 21 20 19 21
14 16 16 16 17 19 20 19 19 19 22 25 25 23 24 25 25 24 24 26 27 28 28 28 29 28 28 29 30 28 31 30 28 28 28 28 22 20 23 22 23 23 23 21 19
15 16 17 16 18 19 19 19 19 22 21 24 25 25 25 26 26 25 25 25 27 28 28 29 29 29 29 30 30 30 29 30 31 31 29 29 31 21 24 25 24 24 24 22 21
16 17 17 17 19 19 19 20 22 22 26 24 25 26 26 26 26 26 26 26 27 26 26 27 28 29 29 29 29 29 29 28 27 28 29 32 31 28 25 29 27 25 24 23 22
17 18 18 18 18 18 19 23 22 25 25 26 26 26 25 27 26 26 26 27 28 28 28 27 26 28 29 29 29 29 30 30 27 29 31 32 30 28 30 30 28 26 25 25 24
18 18 17 18 19 18 20 21 24 25 26 26 26 25 25 26 26 27 26 27 27 28 27 28 28 29 30 30 30 29 28 32 30 28 30 29 30 30 31 30 29 27 26 25 24
18 20 20 19 18 19 23 22 25 25 26 26 24 24 25 26 26 26 26 28 27 28 28 28 27 29 29 29 30 30 31 29 30 27 28 27 26 20 29 29 29 29 28 25 23
18 22 20 19 19 21 22 25 25 25 25 26 25 25 23 25 25 26 26 27 27 26 27 29 28 28 29 28 29 29 29 29 31 31 29 28 29 27 30 30 29 29 28 26 23
20 24 20 20 23 26 26 26 24 26 25 26 26 26 25 26 25 25 26 27 26 27 26 28 28 26 28 30 30 30 29 30 29 28 30 30 25 30 30 30 29 29 28 26 23
21 22 21 20 24 26 25 26 25 26 25 26 25 26 26 26 24 23 25 25 25 27 26 27 27 26 26 28 29 28 30 31 31 31 29 30 28 29 29 29 28 28 27 25 23
22 24 23 23 25 26 25 25 24 24 24 24 25 25 26 25 26 25 25 25 25 25 22 24 27 26 21 23 27 27 28 29 30 29 30 30 26 28 28 28 27 27 26 24 22
22 26 24 25 25 26 26 25 25 24 24 24 24 25 25 24 25 24 25 25 25 23 24 25 25 26 26 26 27 27 28 28 28 29 29 30 28 27 30 28 26 23 23 22 21
21 24 23 24 24 25 21 25 24 24 25 24 24 24 25 24 24 24 25 25 25 26 26 26 24 25 24 26 26 26 27 28 28 29 29 30 28 26 19 25 23 19 19 20 20
19 20 21 23 25 26 26 25 24 24 23 23 24 25 24 23 23 23 24 24 25 25 25 24 25 24 23 26 26 25 26 27 28 28 28 27 25 27 26 24 21 18 18 19 19